[[{"header":{"parameterUnit":"m.s-1","parameterCategory":1,"la1":30.2991,"la2":30.254,"lo1":-89.0895,"lo2":-89.0444,"dy":0.0017,"dx":0.0017,"nx":28,"ny":28,"refTime":"2024-12-09T03:00:00:Z","depth":0,"parameterNumber":2,"parameterNumberName":"U-component_of_WINDS"},"data":[0,0,0,0,0,0,0,0,0,0,0,0,0,0,0,0,0,0,0,0,0,0,0,0,0,0,0,0,0,0,0,0,0,0,0,0,0,0,0,0,0,0,0,0,0,0,0,0,0,0,0,0,0,0,0,0,0,0,0.2231,0.2231,0,0.2296,0.2296,0.2297,0.2287,0.2286,0.2284,0.2283,0.2351,0.2353,0.2356,0,0,0,0,0,0,0,0,0,0,0,0,0,0.2098,0.21,0.223,0.2231,0.2232,0.2296,0.2296,0.2297,0.2287,0.2286,0.2284,0.2283,0.235,0.2353,0.2356,0,0,0,0,0,0,0,0,0,0,0,0,0,0.2158,0.2101,0.223,0.2235,0.2236,0.2295,0.2296,0.2298,0.2287,0.2285,0.2284,0.2282,0.2349,0.2353,0.2357,0.2417,0,0,0.237,0.2372,0,0,0,0,0,0,0,0,0.2155,0.2163,0.2233,0.2234,0.2236,0.2281,0.2274,0.2338,0.2288,0.2268,0.2283,0.2281,0.2329,0.2335,0.2351,0.242,0.2423,0.237,0.2373,0.2375,0.2376,0,0,0,0,0,0,0,0.2151,0.2161,0.2256,0.2234,0.2236,0.2233,0.224,0.2286,0.2307,0.2269,0.2269,0.2276,0.2329,0.2347,0.2352,0.2424,0.237,0.2374,0.2377,0.2378,0.2547,0.2549,0,0,0,0,0,0,0.2145,0.2157,0.2254,0.2258,0.219,0.2237,0.2245,0.2268,0.2306,0.2311,0.2278,0.2276,0.234,0.2347,0.2354,0.2428,0.2375,0.2379,0.2381,0.2545,0.2547,0.2549,0,0,0,0,0,0,0.2143,0.2154,0.2252,0.2208,0.222,0.2241,0.2268,0.2271,0.2288,0.2313,0.2317,0.2292,0.2339,0.2348,0.2402,0.243,0.2381,0.2384,0.2542,0.2545,0.2548,0.2576,0,0,0,0,0,0,0.2139,0.2153,0.2176,0.2208,0.2222,0.2298,0.227,0.2273,0.2295,0.2293,0.2327,0.2331,0.2338,0.2395,0.2406,0.2435,0.2388,0.254,0.2544,0.2547,0.2572,0.2579,0.2585,0,0,0,0,0,0.2134,0.2181,0.2177,0.2189,0.2251,0.2299,0.2307,0.2315,0.2297,0.2321,0.2337,0.233,0.2425,0.2401,0.2413,0.2444,0.2538,0.2543,0.2547,0.2569,0.2578,0.2585,0,0,0,0,0,0,0.2152,0.2185,0.2181,0.224,0.2267,0.2297,0.2327,0.2323,0.2356,0.2353,0.2361,0.2369,0.2423,0.2438,0.2411,0.2504,0.2479,0.2486,0.2492,0.2501,0.2507,0.2502,0.2391,0,0,0,0,0,0.2162,0.2198,0.2226,0.2275,0.2288,0.2305,0.2327,0.233,0.2358,0.237,0.239,0.2418,0.2454,0.2478,0.2513,0.2574,0.2582,0.2601,0.2607,0.2613,0.2619,0.2654,0.2663,0.2563,0.2563,0.2563,0,0,0.2185,0.2207,0.223,0.2279,0.23,0.2338,0.2315,0.2356,0.2384,0.2376,0.2428,0.2443,0.2475,0.2533,0.2559,0.2548,0.2648,0.2618,0.2622,0.2626,0.2659,0.2669,0.2677,0.2566,0.2566,0.2565,0,0,0.2245,0.2265,0.2309,0.2331,0.2364,0.2375,0.2385,0.2416,0.2427,0.2479,0.2474,0.2507,0.2569,0.2593,0.2613,0.2682,0.2677,0.2693,0.2727,0.2761,0.2769,0.2776,0.2802,0.2811,0.2699,0.2699,0.2699,0,0.2269,0.2325,0.2332,0.2374,0.2396,0.239,0.2435,0.2456,0.2498,0.2514,0.25,0.2578,0.2599,0.2663,0.268,0.2696,0.2709,0.269,0.2767,0.2774,0.2781,0.2806,0.2815,0.2701,0.2701,0.2701,0.27,0,0.2354,0.2393,0.2425,0.2466,0.2492,0.2534,0.2548,0.2573,0.2575,0.2587,0.2641,0.2665,0.2706,0.2721,0.2722,0.2785,0.2777,0.2765,0.274,0.2792,0.2816,0.2825,0.2704,0.2703,0.2702,0.2702,0,0,0.2428,0.2472,0.2484,0.2503,0.2539,0.257,0.2612,0.2652,0.2674,0.2703,0.274,0.2793,0.2782,0.2804,0.2808,0.2838,0.2893,0.2822,0.2823,0.2836,0.2966,0.2976,0.2987,0.289,0.2891,0.2893,0.2964,0,0.2493,0.2569,0.2576,0.2644,0.2681,0.2677,0.2714,0.2741,0.2754,0.2787,0.2801,0.2839,0.2821,0.2835,0.2864,0.2881,0.292,0.2875,0.2925,0.2927,0.2919,0.2999,0.3009,0.3075,0.2973,0.2974,0.2975,0,0.2578,0.2611,0.2683,0.2715,0.273,0.2764,0.2801,0.2833,0.2863,0.287,0.2896,0.2896,0.2941,0.2913,0.2976,0.2945,0.2966,0.2977,0.298,0.2986,0.2955,0.3009,0.3096,0.3106,0.299,0.2989,0.2988,0,0.2627,0.2688,0.274,0.2756,0.2794,0.2818,0.2835,0.2863,0.2886,0.2919,0.2934,0.2971,0.2992,0.3021,0.3031,0.301,0.3093,0.3066,0.3102,0.3102,0.3121,0.312,0.3214,0.3131,0.3131,0.3131,0.3131,0,0.2699,0.2744,0.2762,0.2794,0.2844,0.2852,0.2902,0.2917,0.2943,0.2978,0.2975,0.3008,0.3019,0.3055,0.3063,0.3114,0.3123,0.3131,0.3133,0.3132,0.3131,0.3146,0.3143,0.3134,0.3133,0.3133,0.3132,0,0.2762,0.2776,0.2832,0.2863,0.2872,0.2908,0.2935,0.2966,0.2978,0.3023,0.3034,0.3053,0.3095,0.3108,0.3157,0.3163,0.3223,0.322,0.3213,0.3214,0.3249,0.3246,0.3357,0.3373,0.3279,0.328,0.3281,0,0.2808,0.2842,0.2878,0.2901,0.2919,0.2957,0.2981,0.299,0.3016,0.3053,0.308,0.312,0.3154,0.322,0.3239,0.3277,0.3276,0.3312,0.3281,0.328,0.3278,0.3276,0.328,0.3318,0.3319,0.332,0.3321,0,0.2888,0.2894,0.2929,0.2967,0.2996,0.3026,0.3055,0.3075,0.3088,0.3117,0.316,0.3185,0.3236,0.3277,0.3316,0.3333,0.333,0.333,0.3341,0.3341,0.3336,0.3341,0.323,0.3328,0.3327,0.3327,0.3326,0.3326,0.2945,0.2976,0.3006,0.3046,0.3069,0.3096,0.3127,0.3144,0.3179,0.3222,0.3225,0.3271,0.3301,0.3353,0.3372,0.3409,0.3398,0.3413,0.3417,0.3421,0.3424,0.3329,0.3416,0.3415,0.3415,0.3415,0.3415,0,0.3027,0.3046,0.3082,0.3124,0.3155,0.3149,0.3181,0.3207,0.3248,0.3276,0.3309,0.3358,0.3398,0.342,0.346,0.3485,0.3485,0.3495,0.3494,0.3499,0.3431,0.3418,0.3495,0.3495,0.3495,0.3495,0.3495,0.3495,0.3073,0.3125,0.3134,0.3199,0.3217,0.3263,0.3282,0.3308,0.333,0.3386,0.3419,0.3433,0.3459,0.3501,0.3537,0.3543,0.3558,0.3571,0.3575,0.3511,0.3503,0.3496,0.3484,0.3574,0.3574,0.364,0.3641,0.3641]},{"header":{"parameterUnit":"m.s-1","parameterCategory":1,"la1":30.2991,"la2":30.254,"lo1":-89.0895,"lo2":-89.0444,"dy":0.0017,"dx":0.0017,"nx":28,"ny":28,"refTime":"2024-12-09T03:00:00:Z","depth":0,"parameterNumber":3,"parameterNumberName":"V-component_of_WINDS"},"data":[0,0,0,0,0,0,0,0,0,0,0,0,0,0,0,0,0,0,0,0,0,0,0,0,0,0,0,0,0,0,0,0,0,0,0,0,0,0,0,0,0,0,0,0,0,0,0,0,0,0,0,0,0,0,0,0,0,0,4.6498,4.65,0,4.667,4.6672,4.6673,4.6678,4.6676,4.6674,4.6672,4.6844,4.685,4.6856,0,0,0,0,0,0,0,0,0,0,0,0,0,4.6171,4.6177,4.6498,4.65,4.6502,4.6669,4.6672,4.6674,4.6679,4.6676,4.6673,4.6671,4.6842,4.6849,4.6857,0,0,0,0,0,0,0,0,0,0,0,0,0,4.6325,4.6179,4.6497,4.6525,4.6529,4.6669,4.6672,4.6675,4.6679,4.6676,4.6673,4.667,4.6839,4.6848,4.6858,4.6981,0,0,4.6888,4.6892,0,0,0,0,0,0,0,0,4.6316,4.6337,4.6518,4.6523,4.6528,4.6649,4.6619,4.6777,4.668,4.6622,4.6672,4.6668,4.6781,4.6796,4.6835,4.6989,4.6997,4.6889,4.6895,4.6899,4.6902,0,0,0,0,0,0,0,4.6305,4.6329,4.6566,4.6521,4.6527,4.6527,4.6546,4.6649,4.6717,4.6627,4.6627,4.6648,4.6783,4.6825,4.6839,4.6999,4.6889,4.6897,4.6903,4.6907,4.7266,4.727,0,0,0,0,0,0,4.629,4.632,4.656,4.6571,4.6412,4.6536,4.6556,4.6613,4.6716,4.6729,4.665,4.6648,4.681,4.6827,4.6845,4.6998,4.6899,4.6908,4.6914,4.7262,4.7267,4.7271,0,0,0,0,0,0,4.6283,4.6311,4.6553,4.6446,4.6477,4.6545,4.6609,4.6618,4.6661,4.6734,4.6746,4.6681,4.6808,4.6831,4.6948,4.7004,4.6913,4.6921,4.7258,4.7264,4.7269,4.7305,0,0,0,0,0,0,4.6273,4.6309,4.6357,4.6447,4.6483,4.6655,4.6612,4.6624,4.6678,4.6676,4.6766,4.6778,4.6807,4.6934,4.6958,4.7016,4.6929,4.7253,4.7261,4.7267,4.7299,4.7311,4.7321,0,0,0,0,0,4.6262,4.6358,4.6359,4.6388,4.6544,4.6658,4.6678,4.6712,4.6682,4.6731,4.6779,4.6775,4.6993,4.6946,4.6973,4.7035,4.725,4.7259,4.7267,4.7294,4.7308,4.7321,0,0,0,0,0,0,4.6271,4.6371,4.6373,4.6502,4.6572,4.6659,4.6722,4.6726,4.6805,4.6799,4.6836,4.6856,4.6974,4.7015,4.696,4.7161,4.7118,4.7132,4.713,4.7144,4.7155,4.7143,4.6937,0,0,0,0,0,4.6288,4.6374,4.6455,4.6561,4.6597,4.6653,4.6704,4.6724,4.6797,4.6826,4.6882,4.6953,4.7037,4.7092,4.7174,4.7304,4.7325,4.736,4.7371,4.738,4.7392,4.7466,4.7484,4.7298,4.7298,4.7298,0,0,4.6325,4.6389,4.6441,4.6565,4.6622,4.6709,4.6678,4.6771,4.6836,4.684,4.6956,4.6999,4.708,4.7205,4.7262,4.7243,4.7448,4.739,4.7396,4.7405,4.7477,4.7494,4.751,4.7304,4.7303,4.7302,0,0,4.6436,4.6493,4.6589,4.6647,4.6734,4.6771,4.6794,4.6881,4.6911,4.7028,4.7033,4.711,4.7255,4.7313,4.7362,4.7497,4.7497,4.7522,4.758,4.7652,4.7667,4.768,4.7731,4.7748,4.7533,4.7534,4.7534,0,4.647,4.6603,4.6637,4.6732,4.6787,4.6796,4.6894,4.6948,4.7056,4.7094,4.7071,4.7255,4.7309,4.7449,4.7483,4.752,4.7549,4.7513,4.7662,4.7676,4.7688,4.7737,4.7756,4.7536,4.7536,4.7536,4.7535,0,4.6642,4.6734,4.6801,4.6908,4.697,4.7065,4.7114,4.7173,4.7187,4.7226,4.7346,4.7412,4.7509,4.7542,4.7556,4.7685,4.7671,4.7654,4.7613,4.7708,4.7755,4.7774,4.754,4.7539,4.7538,4.7538,0,0,4.6765,4.6892,4.6916,4.6966,4.7063,4.7134,4.7229,4.7326,4.7377,4.745,4.7533,4.7656,4.7642,4.7697,4.7717,4.778,4.7886,4.7756,4.7759,4.778,4.8034,4.8049,4.807,4.7885,4.7889,4.7892,4.8029,0,4.689,4.7063,4.7097,4.7247,4.7333,4.7343,4.7427,4.7495,4.7534,4.7612,4.7654,4.7743,4.7716,4.775,4.7812,4.786,4.7938,4.785,4.7963,4.7967,4.7946,4.8094,4.8108,4.8234,4.8047,4.805,4.8052,0,4.7058,4.714,4.7299,4.7387,4.7424,4.7499,4.7591,4.7666,4.7743,4.7767,4.783,4.7843,4.7943,4.7895,4.8034,4.7973,4.8021,4.8051,4.8057,4.8071,4.8017,4.8114,4.8275,4.8295,4.808,4.8078,4.8076,0,4.7137,4.7285,4.74,4.7442,4.7546,4.7599,4.7645,4.7719,4.7776,4.7855,4.7892,4.7981,4.8031,4.8099,4.8137,4.8098,4.8273,4.8228,4.8297,4.8296,4.8336,4.8333,4.8509,4.8361,4.8361,4.8361,4.836,0,4.7274,4.7371,4.7437,4.7509,4.7618,4.7656,4.7763,4.7808,4.7874,4.7954,4.7966,4.804,4.8084,4.8165,4.8194,4.8305,4.8326,4.8349,4.8356,4.835,4.8348,4.8384,4.8377,4.8366,4.8365,4.8364,4.8363,0,4.7381,4.7428,4.7555,4.7644,4.7669,4.7746,4.7822,4.7891,4.793,4.8031,4.8057,4.8118,4.8213,4.8257,4.8374,4.8393,4.8522,4.8521,4.8497,4.85,4.8568,4.8562,4.8776,4.8807,4.8635,4.8637,4.8638,0,4.7467,4.7543,4.764,4.7696,4.7743,4.7832,4.789,4.7929,4.7989,4.8084,4.8143,4.8239,4.8318,4.847,4.8524,4.8614,4.8618,4.8686,4.8631,4.8624,4.8623,4.8619,4.8628,4.8697,4.8699,4.87,4.8701,0,4.7615,4.7636,4.772,4.7814,4.7884,4.7959,4.8032,4.8076,4.8127,4.8194,4.8293,4.8355,4.8476,4.8572,4.8666,4.8711,4.8716,4.8718,4.8739,4.8735,4.8719,4.8732,4.8527,4.8714,4.8712,4.8711,4.8711,4.871,4.7717,4.7786,4.7866,4.7961,4.802,4.8089,4.816,4.8208,4.8292,4.8396,4.8413,4.8519,4.8595,4.8722,4.8771,4.8854,4.8837,4.8867,4.8875,4.8883,4.8889,4.8704,4.887,4.887,4.887,4.8869,4.8869,0,4.7869,4.7922,4.8008,4.8112,4.8186,4.8184,4.8266,4.8328,4.8422,4.8493,4.8572,4.8686,4.878,4.8841,4.8936,4.899,4.8995,4.9014,4.9012,4.9023,4.8896,4.887,4.9009,4.9009,4.9009,4.9009,4.9009,4.9009,4.7957,4.8075,4.8105,4.8252,4.8304,4.841,4.8457,4.852,4.8578,4.8706,4.8785,4.8825,4.8893,4.8992,4.9078,4.9093,4.9129,4.9149,4.9165,4.9046,4.9031,4.9018,4.8993,4.9156,4.9156,4.9285,4.9286,4.9287]}]]